| time (UTC) | temp C | wind direction | speed KPH | gust KPH | rain 1hr cm | rain 24hr cm | rain mn cm | humidity % | barometer mb |
| 20260906114004 | 16 | 36 | 0.0 | 0.0 | 0.00 | 0.00 | 0.00 | 94 | 1019.0 |
| 20260906113504 | 16 | 36 | 0.0 | 0.0 | 0.00 | 0.00 | 0.00 | 94 | 1019.0 |
| 20260906110504 | 16 | 36 | 0.0 | 0.0 | 0.00 | 0.00 | 0.00 | 93 | 1018.1 |
| 20260906110004 | 16 | 36 | 0.0 | 0.0 | 0.00 | 0.00 | 0.00 | 93 | 1018.1 |
| 20260906105504 | 16 | 36 | 0.0 | 0.0 | 0.00 | 0.00 | 0.00 | 94 | 1018.2 |
| 20260906105005 | 16 | 36 | 0.0 | 0.0 | 0.00 | 0.00 | 0.00 | 94 | 1018.2 |
| 20260906104005 | 16 | 36 | 0.0 | 0.0 | 0.00 | 0.00 | 0.00 | 94 | 1018.2 |
| 20260906103005 | 16 | 36 | 0.0 | 0.0 | 0.00 | 0.00 | 0.00 | 94 | 1018.2 |
| 20260906102005 | 16 | 36 | 0.0 | 0.0 | 0.00 | 0.00 | 0.00 | 94 | 1018.3 |
| 20260906095504 | 16 | 36 | 0.0 | 0.0 | 0.00 | 0.00 | 0.00 | 95 | 1018.1 |
| 20260906093504 | 16 | 36 | 0.0 | 0.0 | 0.00 | 0.00 | 0.00 | 95 | 1018.3 |
| 20260906093004 | 16 | 36 | 0.0 | 0.0 | 0.00 | 0.00 | 0.00 | 95 | 1018.2 |
| 20260906090504 | 16 | 36 | 0.0 | 0.0 | 0.00 | 0.00 | 0.00 | 95 | 1018.3 |
| 20260906085004 | 17 | 36 | 0.0 | 0.0 | 0.00 | 0.00 | 0.00 | 96 | 1018.0 |
| 20260906084504 | 17 | 36 | 0.0 | 0.0 | 0.00 | 0.00 | 0.00 | 96 | 1018.0 |
| 20260906083504 | 17 | 36 | 0.0 | 0.0 | 0.00 | 0.00 | 0.00 | 95 | 1018.1 |
| 20260906083004 | 17 | 36 | 0.0 | 0.0 | 0.00 | 0.00 | 0.00 | 95 | 1018.1 |
| 20260906081505 | 17 | 36 | 0.0 | 0.0 | 0.00 | 0.00 | 0.00 | 95 | 1018.1 |
| 20260906081005 | 17 | 36 | 0.0 | 0.0 | 0.00 | 0.00 | 0.00 | 95 | 1018.0 |
| 20260906080504 | 17 | 36 | 0.0 | 0.0 | 0.00 | 0.00 | 0.00 | 95 | 1017.9 |
| 20260906075504 | 17 | 36 | 0.0 | 0.0 | 0.00 | 0.00 | 0.00 | 95 | 1018.0 |
| 20260906075004 | 17 | 36 | 0.0 | 0.0 | 0.00 | 0.00 | 0.00 | 95 | 1018.0 |
| 20260906074504 | 17 | 36 | 0.0 | 0.0 | 0.00 | 0.00 | 0.00 | 95 | 1018.0 |
| 20260906073504 | 17 | 36 | 0.0 | 0.0 | 0.00 | 0.00 | 0.00 | 95 | 1018.0 |
| 20260906073004 | 17 | 36 | 0.0 | 0.0 | 0.00 | 0.00 | 0.00 | 95 | 1018.0 |
| 20260906072504 | 17 | 36 | 0.0 | 0.0 | 0.00 | 0.00 | 0.00 | 94 | 1018.1 |
| 20260906065004 | 17 | 36 | 0.0 | 0.0 | 0.00 | 0.00 | 0.00 | 94 | 1018.2 |
| 20260906063005 | 17 | 36 | 0.0 | 0.0 | 0.00 | 0.00 | 0.00 | 94 | 1018.2 |
| 20260906061504 | 17 | 36 | 0.0 | 0.0 | 0.00 | 0.00 | 0.00 | 94 | 1018.4 |
| 20260906061005 | 17 | 36 | 0.0 | 0.0 | 0.00 | 0.00 | 0.00 | 94 | 1018.3 |
| 20260906055504 | 18 | 36 | 0.0 | 0.0 | 0.00 | 0.00 | 0.00 | 94 | 1018.2 |
| 20260906055004 | 18 | 36 | 0.0 | 0.0 | 0.00 | 0.00 | 0.00 | 94 | 1018.2 |
| 20260906054504 | 18 | 36 | 0.0 | 0.0 | 0.00 | 0.00 | 0.00 | 93 | 1018.2 |
| 20260906054005 | 18 | 36 | 0.0 | 0.0 | 0.00 | 0.00 | 0.00 | 93 | 1018.0 |
| 20260906053505 | 18 | 36 | 0.0 | 0.0 | 0.00 | 0.00 | 0.00 | 94 | 1018.1 |
| 20260906053004 | 18 | 36 | 0.0 | 0.0 | 0.00 | 0.00 | 0.00 | 94 | 1018.1 |
| 20260906051004 | 18 | 36 | 0.0 | 0.0 | 0.00 | 0.00 | 0.00 | 93 | 1018.2 |
| 20260906050004 | 18 | 36 | 0.0 | 0.0 | 0.00 | 0.00 | 0.00 | 94 | 1018.3 |
| 20260906045504 | 18 | 36 | 0.0 | 0.0 | 0.00 | 0.00 | 0.00 | 93 | 1018.1 |
| 20260906044504 | 18 | 36 | 0.0 | 0.0 | 0.00 | 0.00 | 0.00 | 93 | 1017.9 |
| 20260906043504 | 18 | 36 | 0.0 | 0.0 | 0.00 | 0.00 | 0.00 | 93 | 1017.9 |
| 20260906041005 | 19 | 36 | 0.0 | 0.0 | 0.00 | 0.00 | 0.00 | 93 | 1017.6 |
| 20260906040503 | 19 | 36 | 0.0 | 0.0 | 0.00 | 0.00 | 0.00 | 93 | 1017.4 |
| 20260906034504 | 19 | 36 | 0.0 | 0.0 | 0.00 | 0.00 | 0.00 | 92 | 1017.3 |
| 20260906034005 | 19 | 36 | 0.0 | 0.0 | 0.00 | 0.00 | 0.00 | 92 | 1017.3 |
| 20260906032504 | 20 | 36 | 0.0 | 0.0 | 0.00 | 0.00 | 0.00 | 92 | 1017.4 |
| 20260906032004 | 20 | 36 | 0.0 | 0.0 | 0.00 | 0.00 | 0.00 | 91 | 1017.3 |
| 20260906030006 | 20 | 36 | 0.0 | 0.0 | 0.00 | 0.00 | 0.00 | 91 | 1017.2 |
| 20260906025506 | 20 | 36 | 0.0 | 0.0 | 0.00 | 0.00 | 0.00 | 91 | 1017.2 |
| 20260906023506 | 20 | 36 | 0.0 | 1.6 | 0.00 | 0.00 | 0.00 | 90 | 1017.0 |
| 20260906020006 | 21 | 58 | 1.6 | 4.8 | 0.00 | 0.00 | 0.00 | 89 | 1016.2 |
| 20260906014505 | 21 | 43 | 0.0 | 4.8 | 0.00 | 0.00 | 0.00 | 88 | 1016.1 |
| 20260906014005 | 21 | 38 | 1.6 | 4.8 | 0.00 | 0.00 | 0.00 | 87 | 1016.1 |
| 20260906013006 | 21 | 66 | 1.6 | 4.8 | 0.00 | 0.00 | 0.00 | 87 | 1015.9 |
| 20260906012506 | 22 | 27 | 0.0 | 8.0 | 0.00 | 0.00 | 0.00 | 87 | 1016.1 |
| 20260906010005 | 22 | 47 | 3.2 | 4.8 | 0.00 | 0.00 | 0.00 | 87 | 1016.0 |
| 20260906003006 | 22 | 47 | 3.2 | 8.0 | 0.00 | 0.00 | 0.00 | 85 | 1016.0 |
| 20260906001506 | 23 | 39 | 3.2 | 4.8 | 0.00 | 0.00 | 0.00 | 84 | 1016.2 |
| 20260906000006 | 23 | 45 | 3.2 | 11.3 | 0.00 | 0.00 | 0.00 | 82 | 1016.3 |
| 20260905235506 | 23 | 37 | 3.2 | 8.0 | 0.00 | 0.00 | 0.00 | 81 | 1016.2 |
| 20260905233006 | 24 | 42 | 3.2 | 8.0 | 0.00 | 0.00 | 0.00 | 81 | 1016.0 |
| 20260905230005 | 25 | 11 | 3.2 | 4.8 | 0.00 | 0.00 | 0.00 | 79 | 1016.0 |
| 20260905225006 | 24 | 33 | 1.6 | 4.8 | 0.00 | 0.00 | 0.00 | 80 | 1016.0 |
| 20260905224006 | 25 | 32 | 3.2 | 4.8 | 0.00 | 0.00 | 0.00 | 77 | 1015.9 |
| 20260905223006 | 25 | 13 | 1.6 | 4.8 | 0.00 | 0.00 | 0.00 | 76 | 1015.8 |
| 20260905222006 | 25 | 49 | 4.8 | 9.7 | 0.00 | 0.00 | 0.00 | 75 | 1015.6 |
| 20260905220506 | 25 | 27 | 3.2 | 4.8 | 0.00 | 0.00 | 0.00 | 74 | 1015.7 |
| 20260905213005 | 25 | 16 | 3.2 | 9.7 | 0.00 | 0.00 | 0.00 | 74 | 1015.8 |
| 20260905212505 | 25 | 68 | 1.6 | 4.8 | 0.00 | 0.00 | 0.00 | 75 | 1015.8 |
| 20260905212006 | 25 | 46 | 3.2 | 8.0 | 0.00 | 0.00 | 0.00 | 75 | 1015.9 |
| 20260905211506 | 25 | 355 | 3.2 | 4.8 | 0.00 | 0.00 | 0.00 | 74 | 1016.0 |
| 20260905211005 | 25 | 27 | 3.2 | 4.8 | 0.00 | 0.00 | 0.00 | 74 | 1016.1 |
| 20260905210005 | 25 | 9 | 1.6 | 4.8 | 0.00 | 0.00 | 0.00 | 78 | 1015.8 |
| 20260905205007 | 24 | 12 | 1.6 | 3.2 | 0.00 | 0.00 | 0.00 | 79 | 1015.8 |
| 20260905202507 | 25 | 29 | 3.2 | 4.8 | 0.00 | 0.00 | 0.00 | 80 | 1015.7 |
| 20260905201005 | 25 | 15 | 4.8 | 8.0 | 0.00 | 0.00 | 0.00 | 79 | 1015.8 |
| 20260905200506 | 25 | 32 | 3.2 | 4.8 | 0.00 | 0.00 | 0.00 | 79 | 1015.8 |
| 20260905200005 | 24 | 22 | 1.6 | 9.7 | 0.00 | 0.00 | 0.00 | 81 | 1015.9 |
| 20260905195506 | 25 | 0 | 4.8 | 11.3 | 0.00 | 0.00 | 0.00 | 79 | 1015.9 |
| 20260905194006 | 25 | 48 | 3.2 | 4.8 | 0.00 | 0.00 | 0.00 | 80 | 1015.9 |
| 20260905193505 | 25 | 38 | 1.6 | 11.3 | 0.00 | 0.00 | 0.00 | 81 | 1016.1 |
| 20260905192006 | 24 | 38 | 3.2 | 8.0 | 0.00 | 0.00 | 0.00 | 81 | 1016.2 |
| 20260905191005 | 24 | 37 | 1.6 | 9.7 | 0.00 | 0.00 | 0.00 | 80 | 1016.2 |
| 20260905190506 | 24 | 30 | 1.6 | 4.8 | 0.00 | 0.00 | 0.00 | 82 | 1016.3 |
| 20260905185505 | 24 | 47 | 1.6 | 4.8 | 0.00 | 0.00 | 0.00 | 81 | 1016.4 |
| 20260905181505 | 23 | 61 | 4.8 | 9.7 | 0.00 | 0.00 | 0.00 | 82 | 1016.4 |
| 20260905180006 | 23 | 34 | 3.2 | 8.0 | 0.00 | 0.00 | 0.00 | 83 | 1016.5 |
| 20260905175006 | 23 | 36 | 4.8 | 11.3 | 0.00 | 0.00 | 0.00 | 84 | 1016.6 |
| 20260905174505 | 23 | 26 | 4.8 | 11.3 | 0.00 | 0.00 | 0.00 | 83 | 1016.4 |
| 20260905173006 | 23 | 46 | 4.8 | 12.9 | 0.00 | 0.00 | 0.00 | 84 | 1016.4 |
| 20260905172506 | 23 | 28 | 4.8 | 8.0 | 0.00 | 0.00 | 0.00 | 83 | 1016.5 |
| 20260905171506 | 24 | 38 | 3.2 | 8.0 | 0.00 | 0.00 | 0.00 | 84 | 1016.4 |
| 20260905165507 | 23 | 39 | 3.2 | 8.0 | 0.00 | 0.00 | 0.00 | 84 | 1016.5 |
| 20260905165006 | 23 | 47 | 1.6 | 4.8 | 0.00 | 0.00 | 0.00 | 85 | 1016.6 |
| 20260905164006 | 23 | 40 | 3.2 | 8.0 | 0.00 | 0.00 | 0.00 | 85 | 1016.5 |
| 20260905163005 | 22 | 19 | 1.6 | 8.0 | 0.00 | 0.00 | 0.00 | 88 | 1016.5 |
| 20260905161505 | 22 | 24 | 3.2 | 8.0 | 0.00 | 0.00 | 0.00 | 89 | 1016.5 |
| 20260905161005 | 22 | 40 | 3.2 | 4.8 | 0.00 | 0.00 | 0.00 | 90 | 1016.5 |
| 20260905160505 | 22 | 40 | 3.2 | 4.8 | 0.00 | 0.00 | 0.00 | 90 | 1016.5 |
| 20260905155505 | 22 | 37 | 4.8 | 8.0 | 0.00 | 0.00 | 0.00 | 90 | 1016.4 |
| 20260905155005 | 22 | 32 | 3.2 | 4.8 | 0.00 | 0.00 | 0.00 | 90 | 1016.4 |
| 20260905154505 | 22 | 29 | 3.2 | 4.8 | 0.00 | 0.00 | 0.00 | 90 | 1016.5 |
| 20260905154006 | 22 | 27 | 1.6 | 4.8 | 0.00 | 0.00 | 0.00 | 91 | 1016.4 |
| 20260905153506 | 22 | 38 | 1.6 | 4.8 | 0.00 | 0.00 | 0.00 | 92 | 1016.5 |
| 20260905153005 | 22 | 37 | 3.2 | 4.8 | 0.00 | 0.00 | 0.00 | 91 | 1016.4 |
| 20260905152006 | 21 | 49 | 3.2 | 4.8 | 0.00 | 0.00 | 0.00 | 92 | 1016.4 |
| 20260905151005 | 21 | 49 | 3.2 | 4.8 | 0.00 | 0.03 | 0.00 | 92 | 1016.2 |
| 20260905145506 | 21 | 44 | 0.0 | 8.0 | 0.00 | 0.03 | 0.00 | 92 | 1016.1 |
| 20260905144005 | 21 | 48 | 4.8 | 8.0 | 0.00 | 0.56 | 0.00 | 92 | 1015.9 |
| 20260905143505 | 21 | 38 | 3.2 | 8.0 | 0.00 | 0.76 | 0.00 | 92 | 1015.7 |
| 20260905142505 | 21 | 42 | 4.8 | 8.0 | 0.00 | 1.50 | 0.00 | 91 | 1015.6 |
| 20260905141005 | 21 | 48 | 4.8 | 8.0 | 0.00 | 1.75 | 0.00 | 92 | 1015.6 |
| 20260905140505 | 21 | 42 | 3.2 | 9.7 | 0.00 | 1.85 | 0.00 | 92 | 1015.5 |
| 20260905133505 | 21 | 10 | 3.2 | 9.7 | 0.00 | 3.23 | 0.00 | 94 | 1015.1 |
| 20260905132505 | 21 | 40 | 4.8 | 8.0 | 0.00 | 3.56 | 0.00 | 96 | 1015.1 |
| 20260905132005 | 21 | 52 | 6.4 | 9.7 | 0.00 | 3.56 | 0.00 | 96 | 1015.0 |
| 20260905130505 | 21 | 41 | 3.2 | 4.8 | 0.00 | 3.56 | 0.00 | 97 | 1015.0 |
| 20260905125507 | 21 | 60 | 3.2 | 4.8 | 0.00 | 3.56 | 0.00 | 97 | 1015.0 |
| 20260905121006 | 20 | 40 | 3.2 | 4.8 | 0.00 | 3.56 | 0.00 | 97 | 1014.4 |
| 20260905115006 | 20 | 28 | 3.2 | 4.8 | 0.00 | 3.56 | 0.00 | 97 | 1014.3 |